FW4110 Weather Reports


time (UTC)temp
F
wind
direction
speed
knots
gust
knots
rain 1hr
in
rain 24hr
in
rain mn
in
humidity
%
barometer
mb
20260503034559 46 32 0.0 0.0 0.00 0.00 0.00 86 1021.9
20260503033101 46 32 0.0 0.0 0.00 0.00 0.00 86 1021.9
20260503031556 46 32 0.0 0.0 0.00 0.00 0.00 82 1021.9
20260503030054 46 32 0.0 0.0 0.00 0.00 0.00 85 1021.8
20260503024600 47 32 0.0 0.0 0.00 0.00 0.00 84 1021.7
20260503023050 47 32 0.0 0.0 0.00 0.00 0.00 82 1021.8
20260503021556 47 32 0.0 0.0 0.00 0.00 0.00 82 1021.7
20260503020054 48 32 0.0 0.0 0.00 0.00 0.00 82 1021.7
20260503014617 48 32 0.0 0.0 0.00 0.00 0.00 82 1021.6
20260503013044 49 32 0.0 0.0 0.00 0.00 0.00 81 1021.4
20260503011548 51 32 0.0 0.0 0.00 0.00 0.00 79 1021.3
20260503010049 52 32 0.0 0.0 0.00 0.00 0.00 78 1021.2
20260503004541 55 32 0.0 0.0 0.00 0.00 0.00 75 1021.2
20260503003034 58 32 0.0 0.0 0.00 0.00 0.00 70 1021.2
20260503001534 60 32 0.0 0.9 0.00 0.00 0.00 68 1021.2
20260503000031 60 32 0.0 3.5 0.00 0.00 0.00 62 1021.2
20260502234529 60 352 0.9 3.5 0.00 0.00 0.00 61 1021.1
20260502233028 60 343 1.7 7.0 0.00 0.00 0.00 58 1021.0
20260502231525 61 50 1.7 7.0 0.00 0.00 0.00 59 1021.2
20260502230022 61 15 3.5 6.1 0.00 0.00 0.00 58 1021.2
20260502224523 61 21 2.6 6.1 0.00 0.00 0.00 60 1021.2
20260502223019 60 10 2.6 7.8 0.00 0.00 0.00 58 1021.2
20260502221515 62 322 0.9 3.5 0.00 0.00 0.00 58 1021.2
20260502220014 62 348 4.3 11.3 0.00 0.00 0.00 58 1021.2
20260502214512 62 75 2.6 7.0 0.00 0.00 0.00 59 1021.2
20260502213007 60 43 3.5 7.0 0.00 0.00 0.00 59 1021.3
20260502211508 60 327 2.6 7.0 0.00 0.00 0.00 60 1021.3
20260502210002 60 327 2.6 7.0 0.00 0.00 0.00 58 1021.3
20260502204600 60 349 3.5 6.1 0.00 0.00 0.00 58 1021.4
20260502203102 60 342 4.3 7.8 0.00 0.00 0.00 61 1021.6
20260502201600 59 334 1.7 7.0 0.00 0.00 0.00 61 1021.8
20260502200055 59 308 2.6 6.1 0.00 0.00 0.00 61 1022.0
20260502194603 59 13 1.7 7.8 0.00 0.00 0.00 61 1022.2
20260502193052 58 12 3.5 7.0 0.00 0.00 0.00 61 1022.3
20260502191549 59 28 5.2 8.7 0.00 0.00 0.00 61 1022.4
20260502190048 59 4 3.5 7.8 0.00 0.00 0.00 62 1022.2
20260502184553 60 132 0.0 5.2 0.00 0.00 0.00 62 1022.2
20260502183052 59 340 3.5 7.8 0.00 0.00 0.00 60 1022.2
20260502181543 58 322 2.6 8.7 0.00 0.00 0.00 62 1022.1
20260502170128 58 344 3.5 12.2 0.00 0.00 0.00 67 1022.5
20260502163025 57 4 2.6 8.7 0.00 0.00 0.00 64 1022.4
20260502161524 57 39 4.3 11.3 0.00 0.00 0.00 66 1022.5
20260502151507 57 76 2.6 8.7 0.00 0.00 0.00 45 1022.3
20260502123020 44 346 0.0 2.6 0.00 0.00 0.00 87 1021.1
20260502121518 43 340 0.0 0.9 0.00 0.00 0.00 86 1021.1
20260502114510 0 0.0 0.0 0.00 0.00 0.00 1020.5
20260502113004 0 0.0 0.0 0.00 0.00 0.00 1020.3
20260502111559 0 0.0 0.0 0.00 0.00 0.00 1020.4
20260502110053 40 241 0.0 0.0 0.00 0.00 0.00 84 1020.1
20260502104553 41 241 0.0 0.0 0.00 0.00 0.00 83 1020.0
20260502103048 41 241 0.0 0.0 0.00 0.00 0.00 83 1019.9
20260502101615 41 241 0.0 0.0 0.00 0.00 0.00 82 1019.8
20260502071511 43 41 0.0 0.0 0.00 0.00 0.00 75 1019.4
20260502070137 43 41 0.0 0.0 0.00 0.00 0.00 81 1019.7
20260502064503 44 40 0.0 0.0 0.00 0.00 0.00 84 1019.8
20260502063106 45 40 0.0 0.0 0.00 0.00 0.00 85 1019.7
20260502061602 46 41 0.0 0.0 0.00 0.00 0.00 84 1019.7
20260502060153 46 40 0.0 4.3 0.00 0.00 0.00 84 1019.7
20260502054555 46 187 0.9 3.5 0.00 0.00 0.00 85 1019.5
20260502053046 46 154 0.0 0.0 0.00 0.00 0.00 85 1019.5
20260502051601 46 156 0.0 0.0 0.00 0.00 0.00 84 1019.4
20260502050040 46 156 0.0 0.0 0.00 0.00 0.00 86 1019.5
20260502044537 46 156 0.0 0.0 0.00 0.00 0.00 86 1019.6
20260502043036 47 156 0.0 0.0 0.00 0.00 0.00 85 1019.6
20260502041536 48 156 0.0 0.0 0.00 0.00 0.00 83 1019.6